owner,sensor,date,latitude,longitude,vertical_datum,sea_water_temperature,qcFlag
BP,ioos:station:wmo:42369:2,2023-02-02T00:19:00Z,27.2060,-90.2897,443.5,9.7,11113222
BP,ioos:station:wmo:42369:2,2023-02-02T00:39:00Z,27.2059,-90.2896,443.6,9.8,11113222
BP,ioos:station:wmo:42369:2,2023-02-02T00:59:00Z,27.2058,-90.2897,443.2,9.9,11113222
BP,ioos:station:wmo:42369:2,2023-02-02T01:19:00Z,27.2056,-90.2897,444.3,9.9,11113222
BP,ioos:station:wmo:42369:2,2023-02-02T01:39:00Z,27.2054,-90.2897,443.8,9.6,11113222
BP,ioos:station:wmo:42369:2,2023-02-02T01:59:00Z,27.2054,-90.2897,443.2,9.7,11113222
BP,ioos:station:wmo:42369:2,2023-02-02T02:19:00Z,27.2052,-90.2897,444.1,9.8,11113222
BP,ioos:station:wmo:42369:2,2023-02-02T02:39:00Z,27.2052,-90.2897,444.2,9.9,11113222
BP,ioos:station:wmo:42369:2,2023-02-02T02:59:00Z,27.2052,-90.2897,443.9,9.9,11113222
BP,ioos:station:wmo:42369:2,2023-02-02T03:19:00Z,27.2051,-90.2896,443.6,9.9,11113222
BP,ioos:station:wmo:42369:2,2023-02-02T03:39:00Z,27.2050,-90.2895,443.6,9.9,11113222
BP,ioos:station:wmo:42369:2,2023-02-02T03:59:00Z,27.2050,-90.2895,443.9,9.9,11113222
BP,ioos:station:wmo:42369:2,2023-02-02T04:19:00Z,27.2050,-90.2895,443.6,9.9,11113222
BP,ioos:station:wmo:42369:2,2023-02-02T04:39:00Z,27.2050,-90.2894,443.5,10.0,11111222
BP,ioos:station:wmo:42369:2,2023-02-02T04:59:00Z,27.2049,-90.2894,444.1,10.1,11111222
BP,ioos:station:wmo:42369:2,2023-02-02T05:19:00Z,27.2048,-90.2894,443.4,10.1,11111222
BP,ioos:station:wmo:42369:2,2023-02-02T05:39:00Z,27.2047,-90.2894,443.7,10.1,11111222
BP,ioos:station:wmo:42369:2,2023-02-02T05:59:00Z,27.2048,-90.2894,443.4,10.1,11111222
BP,ioos:station:wmo:42369:2,2023-02-02T06:19:00Z,27.2049,-90.2894,443.8,10.0,11111222
BP,ioos:station:wmo:42369:2,2023-02-02T06:39:00Z,27.2049,-90.2893,444.0,9.9,11113222
BP,ioos:station:wmo:42369:2,2023-02-02T07:19:00Z,27.2047,-90.2892,443.4,9.9,11113222
BP,ioos:station:wmo:42369:2,2023-02-02T07:39:00Z,27.2046,-90.2891,443.4,9.9,11113222
BP,ioos:station:wmo:42369:2,2023-02-02T07:59:00Z,27.2045,-90.2890,442.6,9.8,11113222
BP,ioos:station:wmo:42369:2,2023-02-02T08:19:00Z,27.2045,-90.2890,443.2,9.8,11113222
BP,ioos:station:wmo:42369:2,2023-02-02T08:39:00Z,27.2046,-90.2889,443.6,9.8,11113222
BP,ioos:station:wmo:42369:2,2023-02-02T08:59:00Z,27.2045,-90.2889,443.2,9.8,11113222
BP,ioos:station:wmo:42369:2,2023-02-02T09:19:00Z,27.2045,-90.2889,442.9,9.8,11113222
BP,ioos:station:wmo:42369:2,2023-02-02T09:39:00Z,27.2045,-90.2888,443.8,9.9,11113222
BP,ioos:station:wmo:42369:2,2023-02-02T09:59:00Z,27.2045,-90.2889,443.0,9.9,11113222
BP,ioos:station:wmo:42369:2,2023-02-02T10:19:00Z,27.2046,-90.2889,443.2,9.9,11113222
BP,ioos:station:wmo:42369:2,2023-02-02T10:39:00Z,27.2045,-90.2890,443.3,10.0,11111222
BP,ioos:station:wmo:42369:2,2023-02-02T10:59:00Z,27.2045,-90.2889,442.8,9.9,11113222
BP,ioos:station:wmo:42369:2,2023-02-02T11:19:00Z,27.2045,-90.2889,443.1,9.9,11113222
BP,ioos:station:wmo:42369:2,2023-02-02T11:39:00Z,27.2044,-90.2890,443.0,10.0,11113222
BP,ioos:station:wmo:42369:2,2023-02-02T12:19:00Z,27.2043,-90.2890,443.1,9.9,11113222
BP,ioos:station:wmo:42369:2,2023-02-02T12:39:00Z,27.2042,-90.2889,443.3,9.9,11113222
BP,ioos:station:wmo:42369:2,2023-02-02T12:59:00Z,27.2042,-90.2890,443.4,9.8,11113222
BP,ioos:station:wmo:42369:2,2023-02-02T13:19:00Z,27.2042,-90.2890,443.4,9.8,11113222
BP,ioos:station:wmo:42369:2,2023-02-02T14:19:00Z,27.2041,-90.2890,443.6,9.7,11113222
BP,ioos:station:wmo:42369:2,2023-02-02T14:39:00Z,27.2041,-90.2890,444.1,9.7,11113222
BP,ioos:station:wmo:42369:2,2023-02-02T14:59:00Z,27.2040,-90.2890,443.8,9.7,11113222
BP,ioos:station:wmo:42369:2,2023-02-02T15:19:00Z,27.2042,-90.2892,443.9,9.7,11113222
